Overview Statistics Trail Chart Weather Telemetry Raw packets
 

This is the latest recevied weather packets stored in our database for station/object OK1VOF-13. If no packets are shown the sender has not sent any weather packets the latest 10 day(s).

<< 47 48 49 50 51 52 53 >>
Time Temp. Humidity Pressure Rain* Wind** Luminosity Snow
1787968250 17.22° C 100% 1017.2 hPa 5.08 mm - - -
1787967039 18.33° C 100% 1016.7 hPa 7.37 mm - - -
1787966121 18.89° C 100% 1016.8 hPa 5.59 mm - - -
1787965215 19.44° C 100% 1016.2 hPa 3.81 mm - - -
1787964316 20° C 100% 1016.3 hPa 3.3 mm - - -
1787963391 20.56° C 94% 1015.7 hPa 1.27 mm - - -
1787963083 20.56° C 92% 1015.7 hPa 1.02 mm - - -
1787962183 20.56° C 92% 1015.6 hPa 1.02 mm - - -
1787961881 20.56° C 93% 1015.6 hPa 1.02 mm - - -
1787961579 20.56° C 94% 1015.5 hPa 1.02 mm - - -
1787958875 21.11° C 89% 1015.3 hPa 0 mm - - -
1787957979 21.67° C 81% 1014.9 hPa 0 mm - - -
1787957680 21.67° C 79% 1014.5 hPa 0 mm - - -
1787957381 21.67° C 77% 1014.4 hPa 0 mm - - -
1787956784 21.67° C 73% 1014.1 hPa 0 mm - - -
1787956485 21.67° C 72% 1014 hPa 0 mm - - -
1787956186 21.67° C 72% 1014.2 hPa 0 mm - - -
1787955290 21.67° C 72% 1014.5 hPa 0 mm - - -
1787954686 21.67° C 72% 1014.5 hPa 0 mm - - -
1787954387 21.67° C 73% 1014.4 hPa 0 mm - - -
1787953790 21.67° C 72% 1014.2 hPa 0 mm - - -
1787953491 21.67° C 72% 1014 hPa 0 mm - - -
1787953192 21.67° C 73% 1013.6 hPa 0 mm - - -
1787952893 21.67° C 73% 1013.6 hPa 0 mm - - -
1787952601 21.67° C 73% 1013.6 hPa 0 mm - - -

* Rain latest hour (hover to see other rain measurements)
** Current wind speed in m/s (hover to see current wind gust speed)